Regional Weather Roundup
Issued by NWS

Home | Current Version | Previous Version | Graphics & Text | Print | Product List | Glossary On
Versions: 1 2 3 4 5 6 7 8 9 10 11 12 13 14 15 16 17 18 19 20 21 22 23 24 25 26 27 28 29 30 31 32 33 34 35 36 37 38 39 40 41 42 43 44 45 46 47 48 49 50
000
ASUS43 KFSD 230902
RWRSD

WEATHER ROUNDUP FOR SOUTH DAKOTA
NATIONAL WEATHER SERVICE SIOUX FALLS SD
400 AM CDT SUN JUL 23 2017

NOTE: "FAIR" INDICATES FEW OR NO CLOUDS BELOW 12,000 FEET WITH NO
SIGNIFICANT WEATHER AND/OR OBSTRUCTIONS TO VISIBILITY.


SDZ001>005-009-010-012>017-231000-
NORTHWEST AND NORTH CENTRAL SOUTH DAKOTA

CITY           SKY/WX    TMP DP  RH WIND       PRES   REMARKS
BUFFALO          N/A     67  45  45 CALM      30.04F
FAITH            N/A     62  47  57 E3        30.07S
MOBRIDGE       CLEAR     58  55  90 CALM      30.01S
$$

SDZ012>016-024>037-041>051-057-063-072>074-231000-
SOUTHWEST AND SOUTH CENTRAL SOUTH DAKOTA

CITY           SKY/WX    TMP DP  RH WIND       PRES   REMARKS
RAPID CTY ARPT CLEAR     60  44  55 N6        30.11F
PIERRE         CLEAR     62  51  67 N9        30.01S
CUSTER         CLEAR     59  36  42 NE10      30.24F
ELLSWORTH AFB  CLEAR     63  45  51 W6        30.11S
PHILIP         CLEAR     57  45  64 W5        30.05S
PINE RIDGE     CLEAR     58  54  86 E6        30.08F
SPEARFISH      FAIR      57  43  58 SE3       30.15S
WINNER         FAIR      64  51  62 W5        30.02R
$$

SDZ004>011-016>023-039-040-231000-
NORTHEAST SOUTH DAKOTA

CITY           SKY/WX    TMP DP  RH WIND       PRES   REMARKS
ABERDEEN       CLEAR     60  57  89 N3        29.98R
WATERTOWN      CLEAR     62  58  86 NW6       29.96S
BROOKINGS      CLEAR     64  59  83 NW3       29.96S
SISSETON         N/A     63  58  83 NW9       29.93S
$$

SDZ017-020-022-023-036>040-048>070-231000-
SOUTHEAST SOUTH DAKOTA

CITY           SKY/WX    TMP DP  RH WIND       PRES   REMARKS
SIOUX FALLS    CLEAR     67  60  78 N7        29.94R
HURON          CLEAR     63  60  90 N9        29.97S
CHAMBERLAIN    CLEAR     70  56  61 N3        29.99S
MITCHELL       CLEAR     65  58  78 N7        29.96S
YANKTON        CLEAR     73  65  75 SW7       29.96R
$$

ABBREVIATIONS USED IN REMARKS
   TC - TEMPERATURE IN CELSIUS
  WCI - WIND CHILL INDEX
   HX - HEAT INDEX
  VSB - VISIBILITY





USA.gov is the U.S. government's official web portal to all federal, state and local government web resources and services.